Вернуться в каталог

STARLINK-31151

АктивенСвязьVLEO
NORAD 58742·PAYLOAD·🇺🇸 United States

Запущен Jan 7, 2024 с Cape Canaveral Space Force Station

Loading…

Ближайшие Пролёты (ближайшие 24 часа)

TLE

СвежийSource: CelesTrak SupGP

Эпоха: Sep 14, 2026, 20:46 UTC

1 58742C 24005Q   26257.86576389  .00032419  00000+0  11743-2 0  2574
2 58742  43.0019 231.2341 0001326 257.5004 244.3839 15.27559312    10

Отслеживайте STARLINK-31151 в реальном времени с AllMySat

Download on the App Store